TimeEST,TemperatureF,Dew PointF,Humidity,Sea Level PressureIn,VisibilityMPH,Wind Direction,Wind SpeedMPH,Gust SpeedMPH,PrecipitationIn,Events,Conditions,WindDirDegrees,DateUTC
12:14 AM,26.6,19.4,74,30.18,3.0,West,11.5,-,N/A,Snow,Light Snow,270,2012-12-05 05:14:00
12:35 AM,26.6,19.4,74,30.19,10.0,West,12.7,17.3,N/A,Snow,Light Snow,280,2012-12-05 05:35:00
12:54 AM,24.8,21.2,86,30.20,5.0,West,11.5,16.1,N/A,Snow,Light Snow,280,2012-12-05 05:54:00
1:15 AM,26.6,21.2,80,30.20,7.0,West,8.1,-,N/A,Snow,Light Snow,280,2012-12-05 06:15:00
1:35 AM,26.6,21.2,80,30.21,1.0,WNW,11.5,-,N/A,Snow,Snow,290,2012-12-05 06:35:00
1:54 AM,24.8,21.2,86,30.22,0.8,West,10.4,-,N/A,Snow,Snow,280,2012-12-05 06:54:00
2:15 AM,24.8,21.2,86,30.22,3.0,West,8.1,-,N/A,Snow,Light Snow,280,2012-12-05 07:15:00
2:54 AM,24.8,21.2,86,30.25,5.0,WNW,9.2,-,N/A,Snow,Light Snow,290,2012-12-05 07:54:00
3:15 AM,24.8,21.2,86,30.27,3.0,West,8.1,-,N/A,Snow,Light Snow,280,2012-12-05 08:15:00
3:34 AM,24.8,21.2,86,30.27,10.0,WNW,8.1,-,N/A,Snow,Light Snow,290,2012-12-05 08:34:00
3:55 AM,24.8,21.2,86,30.28,10.0,NW,5.8,-,N/A,Snow,Light Snow,310,2012-12-05 08:55:00
4:15 AM,24.8,19.4,80,30.28,10.0,WNW,6.9,-,N/A,,Mostly Cloudy,300,2012-12-05 09:15:00
4:34 AM,24.8,21.2,86,30.28,4.0,WNW,9.2,-,N/A,Snow,Light Snow,290,2012-12-05 09:34:00
4:55 AM,24.8,21.2,86,30.28,10.0,WNW,6.9,-,N/A,Snow,Light Snow,300,2012-12-05 09:55:00
5:15 AM,26.6,21.2,80,30.30,10.0,WNW,6.9,-,N/A,,Overcast,300,2012-12-05 10:15:00
5:34 AM,26.6,21.2,80,30.31,10.0,WNW,9.2,-,N/A,,Overcast,290,2012-12-05 10:34:00
5:55 AM,26.6,21.2,80,30.32,10.0,NW,8.1,-,N/A,Snow,Light Snow,310,2012-12-05 10:55:00
6:14 AM,26.6,21.2,80,30.32,10.0,NW,8.1,-,N/A,,Overcast,310,2012-12-05 11:14:00
6:35 AM,26.6,19.4,74,30.33,10.0,NW,8.1,-,N/A,Snow,Light Snow,310,2012-12-05 11:35:00
6:55 AM,26.6,19.4,74,30.35,10.0,NW,6.9,-,N/A,,Overcast,310,2012-12-05 11:55:00
7:14 AM,26.6,19.4,74,30.36,10.0,NW,6.9,-,N/A,,Overcast,320,2012-12-05 12:14:00
7:35 AM,26.6,19.4,74,30.37,10.0,NW,8.1,-,N/A,,Overcast,320,2012-12-05 12:35:00
7:55 AM,26.6,19.4,74,30.38,10.0,NW,8.1,-,N/A,,Overcast,320,2012-12-05 12:55:00
9:35 AM,26.6,17.6,69,30.41,10.0,NW,10.4,-,N/A,,Overcast,310,2012-12-05 14:35:00
9:54 AM,26.6,17.6,69,30.41,10.0,North,6.9,-,N/A,,Overcast,350,2012-12-05 14:54:00
10:15 AM,26.6,17.6,69,30.40,10.0,North,10.4,-,N/A,,Overcast,360,2012-12-05 15:15:00
10:34 AM,28.4,17.6,64,30.41,10.0,North,9.2,-,N/A,,Overcast,10,2012-12-05 15:34:00
10:55 AM,28.4,17.6,64,30.42,10.0,North,5.8,-,N/A,,Overcast,350,2012-12-05 15:55:00
11:15 AM,28.4,17.6,64,30.42,10.0,North,8.1,-,N/A,,Overcast,10,2012-12-05 16:15:00
11:34 AM,28.4,17.6,64,30.42,10.0,North,6.9,-,N/A,,Overcast,360,2012-12-05 16:34:00
11:55 AM,28.4,17.6,64,30.41,10.0,NE,6.9,-,N/A,,Overcast,40,2012-12-05 16:55:00
12:14 PM,28.4,17.6,64,30.41,10.0,North,5.8,-,N/A,,Overcast,350,2012-12-05 17:14:00
12:35 PM,28.4,17.6,64,30.40,10.0,NE,6.9,-,N/A,,Overcast,50,2012-12-05 17:35:00
12:54 PM,28.4,17.6,64,30.39,10.0,North,6.9,-,N/A,,Overcast,360,2012-12-05 17:54:00
1:15 PM,28.4,17.6,64,30.40,10.0,Calm,Calm,-,N/A,,Overcast,0,2012-12-05 18:15:00
1:34 PM,28.4,17.6,64,30.41,10.0,North,3.5,-,N/A,,Overcast,10,2012-12-05 18:34:00
1:55 PM,28.4,17.6,64,30.40,10.0,Calm,Calm,-,N/A,,Scattered Clouds,0,2012-12-05 18:55:00
2:15 PM,28.4,15.8,59,30.40,10.0,Calm,Calm,-,N/A,,Clear,0,2012-12-05 19:15:00
2:34 PM,28.4,17.6,64,30.39,10.0,Calm,Calm,-,N/A,,Scattered Clouds,0,2012-12-05 19:34:00
2:55 PM,28.4,17.6,64,30.37,10.0,SSE,3.5,-,N/A,,Scattered Clouds,160,2012-12-05 19:55:00
3:14 PM,28.4,17.6,64,30.37,10.0,Calm,Calm,-,N/A,,Clear,0,2012-12-05 20:14:00
3:35 PM,28.4,17.6,64,30.37,10.0,Calm,Calm,-,N/A,,Clear,0,2012-12-05 20:35:00
3:55 PM,28.4,17.6,64,30.36,10.0,SE,4.6,-,N/A,,Scattered Clouds,140,2012-12-05 20:55:00
4:14 PM,26.6,17.6,69,30.35,10.0,ESE,3.5,-,N/A,,Scattered Clouds,120,2012-12-05 21:14:00
4:35 PM,26.6,17.6,69,30.35,10.0,Calm,Calm,-,N/A,,Clear,0,2012-12-05 21:35:00
4:55 PM,26.6,17.6,69,30.35,10.0,Calm,Calm,-,N/A,,Scattered Clouds,0,2012-12-05 21:55:00
5:14 PM,24.8,17.6,74,30.33,10.0,SE,5.8,-,N/A,,Scattered Clouds,140,2012-12-05 22:14:00
5:35 PM,26.6,19.4,74,30.32,10.0,Calm,Calm,-,N/A,,Mostly Cloudy,0,2012-12-05 22:35:00
5:54 PM,26.6,19.4,74,30.33,10.0,South,4.6,-,N/A,,Overcast,170,2012-12-05 22:54:00
6:15 PM,28.4,21.2,74,30.34,10.0,SSW,4.6,-,N/A,,Overcast,200,2012-12-05 23:15:00
6:35 PM,28.4,21.2,74,30.34,10.0,South,5.8,-,N/A,,Overcast,190,2012-12-05 23:35:00
6:55 PM,28.4,21.2,74,30.33,10.0,SSE,3.5,-,N/A,,Overcast,160,2012-12-05 23:55:00
7:15 PM,30.2,23.0,75,30.32,10.0,South,4.6,-,N/A,,Overcast,180,2012-12-06 00:15:00
7:34 PM,30.2,23.0,75,30.32,10.0,SSE,5.8,-,N/A,,Overcast,150,2012-12-06 00:34:00
7:55 PM,30.2,23.0,75,30.30,10.0,SSE,5.8,-,N/A,,Overcast,160,2012-12-06 00:55:00
8:15 PM,30.2,23.0,75,30.29,10.0,SSE,9.2,17.3,N/A,,Overcast,160,2012-12-06 01:15:00
8:34 PM,30.2,23.0,75,30.29,10.0,SSE,9.2,-,N/A,,Overcast,150,2012-12-06 01:34:00
8:55 PM,30.2,24.8,80,30.28,10.0,SSE,10.4,17.3,N/A,,Overcast,160,2012-12-06 01:55:00
9:14 PM,30.2,24.8,80,30.28,10.0,South,10.4,-,N/A,,Overcast,170,2012-12-06 02:14:00
9:35 PM,32.0,24.8,75,30.26,10.0,SSE,12.7,18.4,N/A,,Overcast,160,2012-12-06 02:35:00
9:55 PM,32.0,24.8,75,30.25,10.0,South,11.5,-,N/A,,Overcast,170,2012-12-06 02:55:00
10:14 PM,32.0,24.8,75,30.24,10.0,South,11.5,-,N/A,,Overcast,170,2012-12-06 03:14:00
10:35 PM,33.8,26.6,75,30.23,10.0,SSE,13.8,21.9,N/A,,Overcast,160,2012-12-06 03:35:00
10:55 PM,33.8,24.8,70,30.22,10.0,South,12.7,18.4,N/A,,Overcast,170,2012-12-06 03:55:00
11:15 PM,33.8,26.6,75,30.21,10.0,South,12.7,17.3,N/A,,Mostly Cloudy,170,2012-12-06 04:15:00
11:35 PM,33.8,26.6,75,30.21,10.0,South,13.8,20.7,N/A,,Overcast,180,2012-12-06 04:35:00
11:54 PM,33.8,26.6,75,30.21,10.0,South,15.0,21.9,N/A,,Overcast,180,2012-12-06 04:54:00